Language selection

Features

My Weather Profile Weather Topics  | 

Coats - northern half: Past 24 Hour Conditions

 

Fort Severn Airport

06:00 AM EST 13 November 2019
Disclaimer

This table is a summary of hourly weather conditions for the past 24 hours.
Please note that these observations might not always be representative of weather conditions over their associated marine area.

Date / Time
(EST)
Wind(knots) Conditions Visibility(km) Pressure(kPa) Air tempC) Relative humidity(%) Dew pointC) Wind Chill
13 November 2019
6:00 SSW 9 Cloudy 16 101.1 -14 76 -17 -22
5:00 SSW 9 Cloudy 16 101.1 -14 76 -17 -22
4:00 S 9 gust 15 Cloudy 16 101.2 -14 77 -17 -22
3:00 S 9 gust 15 Cloudy 16 101.2 -14 77 -17 -22
2:00 S 9 Cloudy 16 101.3 -14 78 -17 -22
1:00 S 10 Clear 16 101.3 -14 79 -17 -22
0:00 SSW 11 Cloudy 16 101.4 -14 78 -17 -23
12 November 2019
23:00 SSW 11 gust 16 Mostly Cloudy 16 101.4 -13 76 -16 -22
22:00 SSW 11 gust 19 Mostly Cloudy 16 101.4 -13 75 -17 -22
21:00 SSW 12 gust 17 Mostly Cloudy 16 101.5 -13 75 -17 -22
20:00 SSW 12 gust 22 Cloudy 16 101.5 -13 74 -17 -22
19:00 S 13 gust 20 Cloudy 16 101.5 -13 74 -17 -23
18:00 S 14 gust 19 Cloudy 16 101.6 -13 72 -17 -23
17:00 S 12 gust 18 Cloudy 16 101.7 -13 71 -17 -22
16:00 SSW 12 gust 17 Mostly Cloudy 16 101.7 -14 72 -18 -23
15:00 S 12 gust 20 Partly Cloudy 16 101.8 -14 72 -18 -23
14:00 S 13 gust 20 Sunny 16 101.9 -14 71 -18 -24
13:00 S 12 gust 19 Partly Cloudy 16 102.0 -16 73 -19 -25
12:00 SSW 10 gust 15 Sunny 16 102.2 -17 75 -20 -26
11:00 SSW 10 gust 15 Sunny 16 102.3 -20 80 -23 -30
10:00 SSW 9 Partly Cloudy 16 102.3 -23 83 -25 -33
9:00 SSW 7 Partly Cloudy 16 102.4 -26 83 -28 -35
8:00 SSW 6 Partly Cloudy 16 102.5 -26 82 -29 -35
7:00 SSW 9 Clear 16 102.5 -27 81 -29 -38
6:00 SSW 7 Clear 16 102.6 -28 81 -31 -38

Zoom-in to make a selection

Map of Hudson - Hudson Bay marine weather areas Arviat Airport Baker Lake Airport Chesterfield Inlet Airport Coral Harbour Airport Rankin Inlet Airport Sanikiluaq Airport Whale Cove Airport Cape Dorset Airport Iqaluit Airport Wager Bay Kimmirut Airport Churchill Airport Fort Severn Airport Peawanuck Airport Moosonee Airport Eastmain Airport La Grande Rivière Airport Waskaganish Airport Wemindji Airport Akulivik Airport Inukjuak Airport Ivujivik Airport Kuujjuarapik Airport Puvirnituq Airport Umiujaq Airport Aupaluk Airport Kangiqsujuaq Airport Kangirsuk Airport Kangiqsualujjuaq Airport Kuujjuaq Airport Quaqtaq Airport Salluit Airport Tasiujaq Airport Cape Kakkiviak
Legend:
buoy Buoy
land station Land Station

Hudson - Hudson Bay Area

Another Region

What we are doing

Date modified: